Tacoma, WA
on Wednesday, February 20, 2013

Wednesday
Previous Day Next Day
Daily Summary
 ActualAverage (KSEA)Record (KSEA)
Temperature
Mean Temperature °F 44°F  
Max Temperature 45°F 50°F 62°F (1977)
Min Temperature 27°F 37°F 25°F (1955)
Degree Days
Heating Degree Days 29 21  
Month to date heating degree days 438  
Since 1 July heating degree days 3087  
Cooling Degree Days 0 0  
Month to date cooling degree days 0  
Year to date cooling degree days 0  
Moisture
Dew Point 37°F   
Average Humidity 91    
Maximum Humidity 100    
Minimum Humidity 70    
Precipitation
Precipitation 0.08 in 0.12 in 0.74 in (1984)
Month to date precipitation 2.53  
Year to date precipitation 8.10  
Snow
Snow 0.00 in in 1.40 in (1993)
Month to date snowfall  
Since 1 July snowfall  
Snow Depth in   
Wind
Wind Speed 4 mph   
Max Wind Speed 15 mph   
Max Gust Speed mph   
Visibility 8 miles   
Events Fog , Rain   

Key: T is trace of precipitation, MM is missing value
Source: NWS Daily Summary
Time(PST)TemperatureDew PointHumidity Pressure Visibility Wind DirectionWind SpeedGust SpeedPrecipitationEvents Conditions
12:58 AM 27.0°F 26.6°F 99% 30.02 in 10.0 miles South 2.3 mph - N/A   Clear
1:58 AM 27.9°F 27.7°F 99% 30.02 in 10.0 miles Calm Calm - N/A   Clear
2:58 AM 27.1°F 27.0°F 99% 30.06 in 10.0 miles SSE 2.3 mph - N/A   Scattered Clouds
3:58 AM 29.7°F 29.3°F 99% 30.06 in 10.0 miles Calm Calm - N/A   Overcast
4:58 AM 30.7°F 30.6°F 99% 30.06 in 10.0 miles West 2.3 mph - N/A   Overcast
5:51 AM 32.0°F 32.0°F 100% 30.05 in 10.0 miles Variable 4.6 mph - N/A   Overcast
5:52 AM 32.0°F 32.0°F 100% 30.05 in 10.0 miles West 8.1 mph - N/A   Light Freezing Drizzle
5:58 AM 32.0°F 31.8°F 99% 30.06 in 10.0 miles WNW 5.8 mph - N/A   Overcast
6:09 AM 32.0°F 32.0°F 100% 30.05 in 10.0 miles WNW 1.2 mph - N/A   Overcast
6:11 AM 32.0°F 32.0°F 100% 30.05 in 10.0 miles Calm Calm - N/A   Overcast
6:58 AM 32.2°F 32.0°F 99% 30.06 in 10.0 miles South 2.3 mph - 0.00 in   Overcast
7:58 AM 33.6°F 33.4°F 99% 30.06 in 10.0 miles SSW 2.3 mph - N/A   Overcast
8:58 AM 35.8°F 33.6°F 92% 30.04 in 10.0 miles South 2.3 mph - N/A   Overcast
9:58 AM 38.3°F 34.9°F 87% 30.04 in 10.0 miles SW 2.3 mph - N/A   Mostly Cloudy
10:58 AM 41.2°F 35.8°F 81% 30.07 in 10.0 miles South 6.9 mph - N/A   Overcast
11:25 AM 42.8°F 37.4°F 81% 30.05 in 10.0 miles SSW 10.4 mph - N/A   Overcast
11:40 AM 42.8°F 37.4°F 81% 30.05 in 8.0 miles SSW 9.2 mph - N/A   Overcast
11:52 AM 42.8°F 39.2°F 87% 30.04 in 10.0 miles SSW 8.1 mph - N/A   Overcast
11:58 AM 42.4°F 38.3°F 85% 30.06 in 10.0 miles South 8.1 mph - 0.00 in   Overcast
12:33 PM 44.6°F 37.4°F 76% 30.03 in 10.0 miles South 8.1 mph - N/A   Mostly Cloudy
12:58 PM 45.0°F 37.8°F 76% 30.04 in 10.0 miles South 9.2 mph - N/A   Overcast
1:13 PM 44.6°F 37.4°F 76% 30.01 in 10.0 miles South 8.1 mph - N/A   Mostly Cloudy
1:57 PM 44.6°F 37.4°F 76% 30.00 in 9.0 miles SSW 5.8 mph - N/A Rain Light Rain
1:58 PM 45.7°F 36.3°F 70% 30.02 in 9.0 miles SSW 5.8 mph - N/A Rain Light Rain
2:07 PM 44.6°F 35.6°F 71% 29.99 in 10.0 miles South 15.0 mph - N/A   Overcast
2:09 PM 44.6°F 35.6°F 71% 29.99 in 10.0 miles SSW 13.8 mph - N/A Rain Light Rain
2:19 PM 44.6°F 35.6°F 71% 29.99 in 10.0 miles SSW 8.1 mph - N/A Rain Light Rain
2:20 PM 44.6°F 35.6°F 71% 29.99 in 10.0 miles SSW 8.1 mph - N/A   Mostly Cloudy
2:30 PM 44.6°F 37.4°F 76% 29.99 in 10.0 miles South 8.1 mph - N/A   Overcast
2:31 PM 44.6°F 37.4°F 76% 29.99 in 10.0 miles South 8.1 mph - N/A Rain Light Rain
2:36 PM 44.6°F 37.4°F 76% 29.99 in 10.0 miles SSW 6.9 mph - N/A Rain Light Rain
2:58 PM 43.2°F 38.1°F 82% 30.01 in 8.0 miles South 9.2 mph - 0.01 in Rain Light Rain
3:18 PM 42.8°F 39.2°F 87% 29.99 in 10.0 miles South 6.9 mph - N/A Rain Light Rain
3:26 PM 42.8°F 39.2°F 87% 29.99 in 10.0 miles SE 5.8 mph - N/A   Mostly Cloudy
3:41 PM 42.8°F 39.2°F 87% 29.99 in 10.0 miles SE 4.6 mph - N/A Rain Light Rain
3:58 PM 43.2°F 39.2°F 86% 30.01 in 10.0 miles SE 3.5 mph - 0.01 in Rain Light Rain
4:28 PM 42.8°F 39.2°F 87% 30.00 in 10.0 miles SSE 2.3 mph - N/A Rain Light Rain
4:58 PM 42.8°F 39.6°F 88% 30.02 in 10.0 miles South 8.1 mph - 0.01 in Rain Light Rain
5:38 PM 41.0°F 39.2°F 93% 30.00 in 10.0 miles SE 2.3 mph - N/A Rain Light Rain
5:48 PM 41.0°F 39.2°F 93% 30.00 in 10.0 miles ESE 2.3 mph - N/A Rain Light Rain
5:58 PM 40.8°F 39.7°F 96% 30.02 in 10.0 miles East 2.3 mph - 0.03 in Rain Light Rain
6:03 PM 41.0°F 39.2°F 93% 30.00 in 10.0 miles East 1.2 mph - N/A Rain Light Rain
6:30 PM 41.0°F 39.2°F 93% 30.01 in 10.0 miles East 2.3 mph - N/A   Scattered Clouds
6:40 PM 41.0°F 39.2°F 93% 30.01 in 10.0 miles East 2.3 mph - N/A   Mostly Cloudy
6:58 PM 40.5°F 40.1°F 99% 30.03 in 10.0 miles East 2.3 mph - 0.01 in   Overcast
6:59 PM 41.0°F 39.2°F 93% 30.01 in 10.0 miles East 2.3 mph - N/A Rain Light Rain
7:52 PM 41.0°F 41.0°F 100% 30.01 in 10.0 miles Calm Calm - N/A   Overcast
7:58 PM 40.6°F 40.5°F 99% 30.03 in 10.0 miles Calm Calm - 0.00 in   Overcast
8:32 PM 41.0°F 41.0°F 100% 30.01 in 10.0 miles North 2.3 mph - N/A   Light Drizzle
8:42 PM 41.0°F 41.0°F 100% 30.01 in 9.0 miles North 2.3 mph - N/A Rain Light Rain
8:56 PM 41.0°F 39.2°F 93% 30.01 in 10.0 miles North 3.5 mph - N/A   Overcast
8:58 PM 41.0°F 39.2°F 93% 30.03 in 10.0 miles North 2.3 mph - 0.01 in   Overcast
9:28 PM 39.2°F 39.2°F 100% 30.01 in 10.0 miles WSW 3.5 mph - N/A   Overcast
9:33 PM 41.0°F 41.0°F 100% 30.02 in 10.0 miles WSW 4.6 mph - N/A   Light Drizzle
9:57 PM 41.0°F 41.0°F 100% 30.02 in 10.0 miles NW 4.6 mph - N/A   Overcast
9:58 PM 40.5°F 40.3°F 99% 30.04 in 10.0 miles NNW 4.6 mph - 0.00 in   Overcast
10:58 PM 40.1°F 39.9°F 99% 30.05 in 3.0 miles Calm Calm - 0.00 in   Mostly Cloudy
11:03 PM 39.2°F 39.2°F 100% 30.02 in 1.5 miles ESE 1.2 mph - N/A   Overcast
11:08 PM 39.2°F 39.2°F 100% 30.02 in 1.5 miles ESE 2.3 mph - N/A   Overcast
11:13 PM 39.2°F 39.2°F 100% 30.02 in 2.0 miles East 2.3 mph - N/A   Overcast
11:18 PM 37.4°F 37.4°F 100% 30.02 in 0.8 miles SE 3.5 mph - N/A   Mostly Cloudy
11:23 PM 37.4°F 37.4°F 100% 30.02 in 0.5 miles SSE 2.3 mph - N/A Fog Fog
11:28 PM 37.4°F 37.4°F 100% 30.02 in 0.5 miles South 2.3 mph - N/A Fog Fog
11:33 PM 37.4°F 37.4°F 100% 30.02 in 0.5 miles South 3.5 mph - N/A Fog Fog
11:38 PM 37.4°F 37.4°F 100% 30.02 in 0.8 miles SSE 4.6 mph - N/A   Mostly Cloudy
11:43 PM 35.6°F 35.6°F 100% 30.02 in 0.5 miles ESE 4.6 mph - N/A Fog Fog
11:53 PM 35.6°F 35.6°F 100% 30.02 in 0.8 miles SSW 2.3 mph - N/A   Mostly Cloudy
11:58 PM 37.4°F 37.4°F 100% 30.03 in 2.0 miles SSE 2.3 mph - N/A   Mostly Cloudy
Moon Phase
Feb. 20 Feb. 25 Mar. 04 Mar. 11 Mar. 19
Sunrise:07:05 AM (PST) Moon Rise:12:56 PM (PST)2/20
Sunset:05:42 PM (PST) Moon Set:03:42 AM (PST)2/20

Copyright © 2014 The Weather Underground, Inc.